Location: Arbon
(43.0005°N, 0.7472°E)
Time: 11:29:49
(UTC+00:00)

Cosmos 1605 Rocket - Pass Details

Date: 22 April 2026
Orbit: 945 x 1004 km, 82.9° (Epoch: 20 May)

Event Time Altitude Azimuth Distance (km) Brightness Sun altitude
Exits shadow 21:47:33 37° 219° (SW) 1,423 4.7 -27.3°
Maximum altitude 21:49:49 60° 281° (W) 1,085 4.3 -27.6°
Drops below altitude 10° 21:55:53 10° 1° (N) 2,696 7.0 -28.2°
Sets 21:58:28 0° 5° (N) 3,654 7.7 -28.4°
